Fargo, ND

12:54 AM CDT on October 23, 2019 (GMT -0500)
Hector International

Weather History for KFAR - August, 2019

Change the Weather History Date:

Monday, August 12, 2019

  Actual Average Record
Temperature  
Mean Temperature 63 °F 70 °F  
Max Temperature 67 °F 82 °F 101 °F (1984)
Min Temperature 58 °F 58 °F 40 °F (1964)
Degree Days  
Heating Degree Days 2 1  
Month to date heating degree days 7 8  
Since 1 June heating degree days 71 97  
Since 1 July heating degree days 13 24  
Cooling Degree Days 0 6  
Month to date cooling degree days 66 78  
Year to date cooling degree days 444 418  
Since 1 June cooling degree days 434 387  
Growing Degree Days 12 (Base 50)    
Moisture  
Dew Point 60 °F    
Average Humidity 87    
Maximum Humidity 100    
Minimum Humidity 73    
Precipitation  
Precipitation 1.04 in 0.07 in 2.67 in (1999)
Month to date precipitation 2.14 0.86  
Year to date precipitation 18.48 14.33  
Snow  
Snow 0.00 in 0.00 in 0.00 in ()
Month to date snowfall 0.0 0.0  
Since 1 June snowfall 0.0 0.0  
Since 1 July snowfall 0.0 0.0  
Snow Depth 0.00 in    
Sea Level Pressure  
Sea Level Pressure 29.90 in    
Wind  
Wind Speed 7 mph (NE)    
Max Wind Speed 13 mph    
Max Gust Speed 19 mph    
Visibility 8 miles    
Events Rain    
T = Trace of Precipitation, MM = Missing Value Source: NWS Daily Summary

Daily Weather History Graph

Daily Weather History Graph

Search for Another Location

Airport or City:

Astronomy

Aug. 12, 2019 Rise Set
Actual Time 6:20 AM CDT 8:43 PM CDT
Civil Twilight 5:46 AM CDT 9:16 PM CDT
Nautical Twilight 5:04 AM CDT 9:58 PM CDT
Astronomical Twilight 4:16 AM CDT 10:46 PM CDT
Moon 7:23 PM CDT (8/12) 3:21 AM CDT (8/12)
Length of Visible Light 15h 30m
Length of Day
14h 22m
Waxing Gibbous, 93% of the Moon is Illuminated
Aug 12
Waxing Gibbous
Aug 15
Full
Aug 23
Last Quarter
Aug 30
New
Sep 5
First Quarter

Hourly Weather History & Observations

Time (CDT) Temp. Dew Point Humidity Pressure Visibility Wind Dir Wind Speed Gust Speed Precip Events Conditions
12:53 AM 64.9 °F 55.9 °F 73% 29.94 in 10.0 mi East 8.1 mph - N/A   Clear
1:53 AM 64.0 °F 57.0 °F 78% 29.95 in 10.0 mi NE 4.6 mph - N/A   Clear
2:53 AM 64.0 °F 55.9 °F 75% 29.96 in 10.0 mi NE 6.9 mph - N/A   Overcast
3:53 AM 63.0 °F 55.0 °F 75% 29.94 in 10.0 mi ENE 9.2 mph - 0.00 in Rain Light Rain
4:53 AM 61.0 °F 55.9 °F 83% 29.93 in 10.0 mi NE 6.9 mph - 0.01 in Rain Light Rain
5:53 AM 59.0 °F 55.9 °F 90% 29.91 in 7.0 mi ENE 11.5 mph - 0.10 in Rain Rain
6:53 AM 57.9 °F 57.0 °F 97% 29.92 in 4.0 mi ENE 5.8 mph - 0.22 in Rain Heavy Rain
7:06 AM 57.9 °F 57.0 °F 97% 29.93 in 2.5 mi NNE 3.5 mph - 0.08 in Rain Heavy Rain
7:13 AM 57.9 °F 57.0 °F 97% 29.92 in 1.8 mi ENE 5.8 mph - 0.17 in Rain Heavy Rain
7:27 AM 57.9 °F 57.0 °F 97% 29.92 in 2.0 mi East 6.9 mph - 0.28 in Rain Heavy Rain
7:46 AM 57.9 °F 57.9 °F 100% 29.91 in 1.2 mi ENE 12.7 mph - 0.41 in Rain Heavy Rain
7:53 AM 57.9 °F 57.9 °F 100% 29.92 in 1.5 mi ENE 6.9 mph 19.6 mph 0.47 in Rain Heavy Rain
7:55 AM 59.0 °F 57.9 °F 96% 29.92 in 2.0 mi ENE 4.6 mph - 0.00 in Rain Rain
8:05 AM 59.0 °F 57.9 °F 96% 29.91 in 1.8 mi ENE 9.2 mph - 0.05 in Rain Heavy Rain
8:12 AM 59.0 °F 57.9 °F 96% 29.91 in 2.0 mi ENE 10.4 mph - 0.09 in Rain Rain
8:22 AM 59.0 °F 57.9 °F 96% 29.92 in 1.8 mi NE 5.8 mph - 0.14 in Rain Heavy Rain
8:25 AM 59.0 °F 59.0 °F 100% 29.91 in 2.0 mi NE 6.9 mph - 0.15 in Rain Rain
8:34 AM 59.0 °F 57.9 °F 96% 29.91 in 3.0 mi ENE 8.1 mph - 0.17 in Rain Rain
8:45 AM 59.0 °F 57.9 °F 96% 29.91 in 5.0 mi East 11.5 mph - 0.18 in Rain Light Rain
8:53 AM 59.0 °F 59.0 °F 100% 29.91 in 10.0 mi East 9.2 mph - 0.18 in Rain Light Rain
9:00 AM 59.0 °F 59.0 °F 100% 29.90 in 10.0 mi East 8.1 mph - 0.00 in Rain Light Rain
9:53 AM 60.1 °F 59.0 °F 96% 29.90 in 10.0 mi East 8.1 mph - 0.02 in Rain Light Rain
10:53 AM 62.1 °F 61.0 °F 96% 29.89 in 10.0 mi East 9.2 mph - 0.01 in   Overcast
11:53 AM 63.0 °F 60.1 °F 90% 29.89 in 10.0 mi East 8.1 mph - 0.00 in   Overcast
12:53 PM 64.0 °F 60.1 °F 87% 29.88 in 10.0 mi ENE 6.9 mph - 0.00 in   Overcast
1:26 PM 64.0 °F 61.0 °F 90% 29.89 in 8.0 mi ENE 5.8 mph - 0.01 in Rain Light Rain
1:33 PM 64.0 °F 61.0 °F 90% 29.89 in 10.0 mi East 5.8 mph - 0.01 in Rain Light Rain
1:53 PM 64.0 °F 61.0 °F 90% 29.89 in 10.0 mi NE 4.6 mph - 0.01 in Rain Light Rain
2:07 PM 64.0 °F 61.0 °F 90% 29.89 in 4.0 mi NE 4.6 mph - 0.01 in Rain Light Rain
2:53 PM 64.9 °F 62.1 °F 90% 29.88 in 10.0 mi NE 4.6 mph - 0.02 in   Overcast
3:37 PM 66.0 °F 63.0 °F 90% 29.87 in 10.0 mi NNE 5.8 mph - N/A   Overcast
3:53 PM 66.0 °F 62.1 °F 87% 29.87 in 10.0 mi NNE 5.8 mph - N/A   Overcast
4:26 PM 66.9 °F 63.0 °F 87% 29.87 in 10.0 mi NNE 4.6 mph - N/A   Overcast
4:53 PM 66.0 °F 63.0 °F 90% 29.87 in 10.0 mi NE 5.8 mph - N/A   Overcast
5:53 PM 64.9 °F 63.0 °F 93% 29.87 in 10.0 mi North 9.2 mph - N/A   Overcast
6:53 PM 66.0 °F 64.0 °F 93% 29.87 in 10.0 mi North 6.9 mph - N/A   Overcast
7:53 PM 64.0 °F 63.0 °F 96% 29.88 in 10.0 mi North 8.1 mph - N/A   Overcast
8:53 PM 64.0 °F 63.0 °F 96% 29.88 in 10.0 mi Calm Calm - N/A   Overcast
9:34 PM 64.4 °F 62.6 °F 94% 29.88 in 10.0 mi Calm Calm - N/A   Overcast
9:42 PM 64.0 °F 63.0 °F 96% 29.88 in 10.0 mi Calm Calm - N/A   Overcast
9:53 PM 64.0 °F 62.1 °F 93% 29.89 in 10.0 mi Calm Calm - N/A   Overcast
10:53 PM 64.0 °F 62.1 °F 93% 29.89 in 10.0 mi NW 5.8 mph - N/A   Overcast
11:28 PM 63.0 °F 62.1 °F 97% 29.89 in 10.0 mi NW 9.2 mph - N/A   Overcast
11:53 PM 63.0 °F 62.1 °F 97% 29.91 in 10.0 mi NW 6.9 mph - N/A   Overcast